Regional Weather Roundup
Issued by NWS

Home | Current Version | Previous Version | Text Only | Print | Product List | Glossary Off
Versions: 1 2 3 4 5 6 7 8 9 10 11 12 13 14 15 16 17 18 19 20 21 22 23 24 25 26 27

000
ASUS45 KCYS 071810
RWRWY

WYOMING REGIONAL WEATHER ROUNDUP
NATIONAL WEATHER SERVICE CHEYENNE WY
1100 AM MST WED DEC 07 2016

NOTE:  "FAIR" INDICATES FEW OR NO CLOUDS BELOW 12,000 FEET
WITH NO SIGNIFICANT WEATHER AND/OR OBSTRUCTIONS TO VISIBILITY.

WYZ001-071900-
YELLOWSTONE NATIONAL PARK

CITY           SKY/WX    TMP DP  RH WIND       PRES   REMARKS
LK YELLOWSTONE   N/A     -4  -7  87 CALM      30.06R
6HR MIN TEMP: -16; 6HR MAX TEMP:  -2;

W YELLOWSTONE  NOT AVBL

$$
WYZ002>013-054>058-071-098>099-071900-
NORTHERN WYOMING

CITY           SKY/WX    TMP DP  RH WIND       PRES   REMARKS
JACKSON        MOSUNNY    3   0  85 CALM      30.16R
CODY           CLOUDY     9  -2  61 CALM      30.30R
GREYBULL       CLOUDY    11  -2  56 N5        30.37R WCI   3
6HR MIN TEMP:   4; 6HR MAX TEMP:  11;

WORLAND        CLOUDY     9  -1  64 NW10      30.35R WCI  -5
6HR MIN TEMP:   6; 6HR MAX TEMP:   9; 6HR PCP: TRACE;

SHERIDAN         N/A      4  -5  66 MISG      30.38S
BUFFALO        CLOUDY     1  -7  68 NW8       30.29S WCI -13
6HR MIN TEMP:  -3; 6HR MAX TEMP:   2; 6HR PCP: TRACE;

GILLETTE       PTSUNNY    0  -6  76 NW13      30.32S WCI -18
6HR MIN TEMP:  -4; 6HR MAX TEMP:   0;

HULETT         CLOUDY     1  -6  71 MISG      30.32R HAZE
NEWCASTLE      FAIR       1  -8  66 NW18      30.32S WCI -19

$$
WYZ014>020-022>026-101>103-071900-
CENTRAL WYOMING

CITY           SKY/WX    TMP DP  RH WIND       PRES   REMARKS
BIG PINEY      FAIR       6   2  83 VRB3      30.11R
6HR MIN TEMP: -10; 6HR MAX TEMP:   6;

PINEDALE       MOCLDY     5   0  78 SE8       30.12R WCI  -8
DUBOIS         FAIR       0  -9  65 NW5       30.07R WCI -10
LANDER         FAIR       7   1  76 SE5       30.22R WCI  -2
6HR MIN TEMP:   2; 6HR MAX TEMP:   7; 6HR PCP: TRACE;

RIVERTON       CLOUDY     7   1  76 CALM      30.23S
6HR MIN TEMP:   3; 6HR MAX TEMP:   8; 6HR PCP: TRACE;

CASPER         FAIR       3  -4  72 CALM      30.26R
6HR MIN TEMP: -10; 6HR MAX TEMP:   3; 6HR PCP: TRACE;

DOUGLAS        CLOUDY     6  -3  66 NW9       30.28R WCI  -8
6HR MIN TEMP:  -3; 6HR MAX TEMP:   6; 6HR PCP: TRACE;


$$
WYZ021-027>030-104>119-071900-
SOUTHERN WYOMING

CITY           SKY/WX    TMP DP  RH WIND       PRES   REMARKS
EVANSTON       FAIR      11   4  73 CALM      30.12R
6HR MIN TEMP:   3; 6HR MAX TEMP:  11;

FORT BRIDGER   FAIR      13   5  68 W8        30.16R WCI   2
ROCK SPRINGS   FAIR       6   0  76 E3        30.13R
6HR MIN TEMP:   0; 6HR MAX TEMP:   7; 6HR PCP: TRACE;

DIXON          FAIR      10   0  64 W5        30.15R WCI   2
RAWLINS        FAIR       8  -3  61 CALM      30.11R
6HR MIN TEMP:  -4; 6HR MAX TEMP:   8; 6HR PCP: TRACE;

SARATOGA       FAIR       9   1  72 NW5       30.08S WCI   0
LARAMIE        LGT SNOW   2  -5  72 N9        30.02F WCI -13
6HR MIN TEMP:  -8; 6HR MAX TEMP:   1; 6HR PCP: TRACE;

CHEYENNE       PTSUNNY    4  -5  66 N10       30.13R WCI -11
6HR MIN TEMP:   0; 6HR MAX TEMP:   4; 6HR PCP:  0.01;

TORRINGTON     PTSUNNY   11  -2  56 NW16G22   30.29S WCI  -6
6HR MIN TEMP:   4; 6HR MAX TEMP:  11; 6HR PCP: TRACE;

PINE BLUFFS    CLOUDY     7   0  72 N15       30.22S WCI -11

$$




USA.gov is the U.S. government's official web portal to all federal, state and local government web resources and services.